,,Stat5,,Stat1,,Stat2,,Stat3,,Stat4,,Wind1,,Wind1,
time,status,PA1M_AVG,status,PR1M_SUM,status,RH1M_AVG,status,SR1M_AVG,status,TA1M_AVG,status,W1dAve1m,status,W1sAve1m,
2002-07-08, 00:00:00,VALID,917.187,VALID,0,VALID,97.5677,VALID,0,VALID,19.9912,VALID,108,VALID,1.41406,
2002-07-08, 00:01:00,VALID,917.178,VALID,0,VALID,97.6859,VALID,0,VALID,19.9882,VALID,107,VALID,1.2348,
2002-07-08, 00:02:00,VALID,917.184,VALID,0,VALID,97.7254,VALID,0,VALID,19.978,VALID,106,VALID,1.11951,
2002-07-08, 00:03:00,VALID,917.162,VALID,0,VALID,97.5728,VALID,0,VALID,19.9654,VALID,91,VALID,0.81296,
2002-07-08, 00:04:00,VALID,917.121,VALID,0,VALID,97.4176,VALID,-0.0169808,VALID,19.9201,VALID,87,VALID,0.797676,
2002-07-08, 00:05:00,VALID,917.1,VALID,0,VALID,97.4443,VALID,0,VALID,19.9112,VALID,85,VALID,0.615625,
2002-07-08, 00:06:00,VALID,917.092,VALID,0,VALID,97.4049,VALID,-0.0169808,VALID,19.8913,VALID,120,VALID,0.637541,
2002-07-08, 00:07:00,VALID,917.079,VALID,0,VALID,97.5041,VALID,0.0849042,VALID,19.8836,VALID,140,VALID,0.670117,
2002-07-08, 00:08:00,VALID,917.066,VALID,0,VALID,97.6236,VALID,0.101885,VALID,19.8771,VALID,149,VALID,0.930689,
2002-07-08, 00:09:00,VALID,917.05,VALID,0,VALID,97.6885,VALID,0.0849042,VALID,19.8769,VALID,155,VALID,0.731027,
2002-07-08, 00:10:00,VALID,917.053,VALID,0,VALID,97.7953,VALID,0.0849042,VALID,19.8898,VALID,151,VALID,0.800781,
2002-07-08, 00:11:00,VALID,917.047,VALID,0,VALID,97.7864,VALID,0.0849042,VALID,19.893,VALID,143,VALID,1.04514,
2002-07-08, 00:12:00,VALID,917.055,VALID,0,VALID,97.8347,VALID,0.0679233,VALID,19.9032,VALID,129,VALID,0.912326,
2002-07-08, 00:13:00,VALID,917.047,VALID,0,VALID,97.8881,VALID,0.0679233,VALID,19.8963,VALID,123,VALID,0.976963,
2002-07-08, 00:14:00,VALID,917.046,VALID,0,VALID,97.9314,VALID,0.101885,VALID,19.9196,VALID,117,VALID,1.17866,
2002-07-08, 00:15:00,VALID,917.044,VALID,0,VALID,98.0738,VALID,0.101885,VALID,19.9415,VALID,108,VALID,1.31168,
2002-07-08, 00:16:00,VALID,917.066,VALID,0,VALID,97.986,VALID,0.0849042,VALID,19.9872,VALID,112,VALID,1.13239,
2002-07-08, 00:17:00,VALID,917.102,VALID,0,VALID,97.8131,VALID,0.101885,VALID,20.0031,VALID,107,VALID,0.955729,
2002-07-08, 00:18:00,VALID,917.14,VALID,0,VALID,97.6758,VALID,0.0339617,VALID,20.0064,VALID,116,VALID,1.1155,
2002-07-08, 00:19:00,VALID,917.176,VALID,0,VALID,97.471,VALID,-0.0169808,VALID,20.0046,VALID,101,VALID,0.907227,
2002-07-08, 00:20:00,VALID,917.209,VALID,0,VALID,97.1786,VALID,-0.0509425,VALID,19.9691,VALID,85,VALID,1.21135,
2002-07-08, 00:21:00,VALID,917.223,VALID,0,VALID,96.9344,VALID,-0.0849042,VALID,19.9211,VALID,96,VALID,1.48918,
2002-07-08, 00:22:00,VALID,917.232,VALID,0,VALID,97.1264,VALID,-0.0509425,VALID,19.8918,VALID,100,VALID,1.31641,
2002-07-08, 00:23:00,VALID,917.235,VALID,0,VALID,97.1976,VALID,-0.0169808,VALID,19.8948,VALID,104,VALID,1.01963,
2002-07-08, 00:24:00,VALID,917.234,VALID,0,VALID,97.2091,VALID,-0.0339617,VALID,19.8854,VALID,106,VALID,0.955025,
2002-07-08, 00:25:00,VALID,917.237,VALID,0,VALID,97.2917,VALID,-0.0339617,VALID,19.8786,VALID,109,VALID,1.00781,
2002-07-08, 00:26:00,VALID,917.233,VALID,0,VALID,97.3057,VALID,-0.0339617,VALID,19.8786,VALID,115,VALID,0.929036,
2002-07-08, 00:27:00,VALID,917.214,VALID,0,VALID,97.3172,VALID,-0.0509425,VALID,19.8662,VALID,124,VALID,0.819164,
2002-07-08, 00:28:00,VALID,917.2,VALID,0,VALID,97.4469,VALID,-0.0169808,VALID,19.8695,VALID,151,VALID,0.78105,
2002-07-08, 00:29:00,VALID,917.188,VALID,0,VALID,97.4863,VALID,-0.0509425,VALID,19.8627,VALID,158,VALID,0.767228,
2002-07-08, 00:30:00,VALID,917.194,VALID,0,VALID,97.5422,VALID,-0.0169808,VALID,19.8466,VALID,144,VALID,0.749554,
2002-07-08, 00:31:00,VALID,917.172,VALID,0,VALID,97.5715,VALID,-0.0169808,VALID,19.8364,VALID,137,VALID,0.792468,
2002-07-08, 00:32:00,VALID,917.171,VALID,0,VALID,97.5702,VALID,-0.0679233,VALID,19.8108,VALID,125,VALID,0.579603,
2002-07-08, 00:33:00,VALID,917.165,VALID,0,VALID,97.5995,VALID,-0.0509425,VALID,19.7887,VALID,108,VALID,0.651259,
2002-07-08, 00:34:00,VALID,917.167,VALID,0,VALID,97.7711,VALID,0,VALID,19.7753,VALID,93,VALID,1.01542,
2002-07-08, 00:35:00,VALID,917.146,VALID,0,VALID,97.6758,VALID,-0.0169808,VALID,19.7497,VALID,87,VALID,0.902549,
2002-07-08, 00:36:00,VALID,917.135,VALID,0,VALID,97.7737,VALID,0,VALID,19.7203,VALID,87,VALID,0.874383,
2002-07-08, 00:37:00,VALID,917.146,VALID,0,VALID,97.9046,VALID,-0.0169808,VALID,19.7231,VALID,100,VALID,0.770904,
2002-07-08, 00:38:00,VALID,917.155,VALID,0,VALID,98.0165,VALID,-0.0509425,VALID,19.7402,VALID,118,VALID,0.741536,
2002-07-08, 00:39:00,VALID,917.159,VALID,0,VALID,98.0725,VALID,-0.0169808,VALID,19.7556,VALID,120,VALID,0.903294,
2002-07-08, 00:40:00,VALID,917.151,VALID,0,VALID,97.9733,VALID,-0.0169808,VALID,19.779,VALID,126,VALID,0.885352,
2002-07-08, 00:41:00,VALID,917.152,VALID,0,VALID,97.9466,VALID,-0.0339617,VALID,19.7787,VALID,127,VALID,1.03618,
2002-07-08, 00:42:00,VALID,917.146,VALID,0,VALID,97.869,VALID,-0.0509425,VALID,19.7912,VALID,130,VALID,0.825521,
2002-07-08, 00:43:00,VALID,917.126,VALID,0,VALID,97.6999,VALID,-0.0339617,VALID,19.7947,VALID,130,VALID,0.642144,
2002-07-08, 00:44:00,VALID,917.109,VALID,0,VALID,97.6414,VALID,-0.0169808,VALID,19.7817,VALID,131,VALID,0.945713,
2002-07-08, 00:45:00,VALID,917.102,VALID,0,VALID,97.5969,VALID,0,VALID,19.7852,VALID,127,VALID,0.957559,
2002-07-08, 00:46:00,VALID,917.102,VALID,0,VALID,97.5219,VALID,-0.0509425,VALID,19.8048,VALID,121,VALID,0.891797,
2002-07-08, 00:47:00,VALID,917.098,VALID,0,VALID,97.4558,VALID,-0.0509425,VALID,19.7917,VALID,134,VALID,0.876953,
2002-07-08, 00:48:00,VALID,917.098,VALID,0,VALID,97.5105,VALID,-0.0339617,VALID,19.8006,VALID,131,VALID,0.988051,
2002-07-08, 00:49:00,VALID,917.086,VALID,0,VALID,97.4621,VALID,-0.0169808,VALID,19.8439,VALID,126,VALID,1.05228,
2002-07-08, 00:50:00,VALID,917.059,VALID,0,VALID,97.3833,VALID,-0.0339617,VALID,19.8503,VALID,113,VALID,1.16146,
2002-07-08, 00:51:00,VALID,917.029,VALID,0,VALID,97.3668,VALID,-0.0169808,VALID,19.8821,VALID,116,VALID,1.10536,
2002-07-08, 00:52:00,VALID,916.969,VALID,0,VALID,97.3134,VALID,-0.0339617,VALID,19.9115,VALID,112,VALID,1.00421,
2002-07-08, 00:53:00,VALID,916.938,VALID,0,VALID,97.1798,VALID,0,VALID,19.9341,VALID,101,VALID,0.680321,
2002-07-08, 00:54:00,VALID,916.901,VALID,0,VALID,97.0018,VALID,-0.0169808,VALID,19.9371,VALID,109,VALID,0.79796,
2002-07-08, 00:55:00,VALID,916.871,VALID,0,VALID,96.937,VALID,-0.0169808,VALID,19.9231,VALID,120,VALID,0.86899,
2002-07-08, 00:56:00,VALID,916.843,VALID,0,VALID,96.8314,VALID,-0.0509425,VALID,19.9405,VALID,135,VALID,0.82278,
2002-07-08, 00:57:00,VALID,916.83,VALID,0,VALID,96.7869,VALID,-0.0339617,VALID,19.9246,VALID,129,VALID,1.02817,
2002-07-08, 00:58:00,VALID,916.8,VALID,0,VALID,96.7767,VALID,-0.0169808,VALID,19.9117,VALID,127,VALID,1.21917,
2002-07-08, 00:59:00,VALID,916.768,VALID,0,VALID,96.7475,VALID,-0.0509425,VALID,19.902,VALID,128,VALID,1.05751,
2002-07-08, 01:00:00,VALID,916.776,VALID,0,VALID,96.7691,VALID,-0.0679233,VALID,19.8985,VALID,115,VALID,0.866602,
2002-07-08, 01:01:00,VALID,916.775,VALID,0,VALID,96.7869,VALID,-0.0509425,VALID,19.8856,VALID,121,VALID,1.07031,
2002-07-08, 01:02:00,VALID,916.763,VALID,0,VALID,96.7653,VALID,-0.0339617,VALID,19.8757,VALID,117,VALID,1.12541,
2002-07-08, 01:03:00,VALID,916.77,VALID,0,VALID,96.8657,VALID,-0.0169808,VALID,19.8821,VALID,119,VALID,1.15024,
2002-07-08, 01:04:00,VALID,916.787,VALID,0,VALID,96.7717,VALID,0.0169808,VALID,19.8744,VALID,110,VALID,1.07487,
2002-07-08, 01:05:00,VALID,916.814,VALID,0,VALID,96.9522,VALID,0.0509425,VALID,19.8642,VALID,117,VALID,1.14183,
2002-07-08, 01:06:00,VALID,916.81,VALID,0,VALID,96.8518,VALID,0.0679233,VALID,19.897,VALID,114,VALID,1.42061,
2002-07-08, 01:07:00,VALID,916.809,VALID,0,VALID,96.764,VALID,0.0849042,VALID,19.8938,VALID,112,VALID,1.24395,
2002-07-08, 01:08:00,VALID,916.777,VALID,0,VALID,96.6801,VALID,0.0679233,VALID,19.9037,VALID,111,VALID,1.17253,
2002-07-08, 01:09:00,VALID,916.765,VALID,0,VALID,96.5962,VALID,0.0339617,VALID,19.8712,VALID,110,VALID,1.22817,
2002-07-08, 01:10:00,VALID,916.747,VALID,0,VALID,96.6152,VALID,0.0679233,VALID,19.8384,VALID,119,VALID,1.02404,
2002-07-08, 01:11:00,VALID,916.76,VALID,0,VALID,96.5962,VALID,0.0509425,VALID,19.8324,VALID,119,VALID,1.01262,
2002-07-08, 01:12:00,VALID,916.779,VALID,0,VALID,96.6572,VALID,0.0849042,VALID,19.8225,VALID,114,VALID,1.10513,
2002-07-08, 01:13:00,VALID,916.776,VALID,0,VALID,96.6127,VALID,0.0679233,VALID,19.8098,VALID,117,VALID,1.00461,
2002-07-08, 01:14:00,VALID,916.776,VALID,0,VALID,96.6661,VALID,0.0339617,VALID,19.7872,VALID,118,VALID,1.05215,
2002-07-08, 01:15:00,VALID,916.785,VALID,0,VALID,96.717,VALID,0.0509425,VALID,19.781,VALID,111,VALID,0.905382,
2002-07-08, 01:16:00,VALID,916.774,VALID,0,VALID,96.82,VALID,0.0509425,VALID,19.7648,VALID,128,VALID,0.8127,
2002-07-08, 01:17:00,VALID,916.754,VALID,0,VALID,96.8111,VALID,0.0509425,VALID,19.7519,VALID,113,VALID,0.789063,
2002-07-08, 01:18:00,VALID,916.739,VALID,0,VALID,96.881,VALID,-0.0169808,VALID,19.7233,VALID,113,VALID,1.07422,
2002-07-08, 01:19:00,VALID,916.732,VALID,0,VALID,96.9967,VALID,-0.0679233,VALID,19.7017,VALID,108,VALID,1.02449,
2002-07-08, 01:20:00,VALID,916.753,VALID,0,VALID,96.9242,VALID,-0.0509425,VALID,19.6885,VALID,94,VALID,0.639974,
2002-07-08, 01:21:00,VALID,916.756,VALID,0,VALID,96.9255,VALID,-0.0169808,VALID,19.66,VALID,114,VALID,0.550253,
2002-07-08, 01:22:00,VALID,916.757,VALID,0,VALID,97.0794,VALID,-0.0509425,VALID,19.6368,VALID,111,VALID,0.730078,
2002-07-08, 01:23:00,VALID,916.744,VALID,0,VALID,97.1391,VALID,-0.0169808,VALID,19.6436,VALID,130,VALID,0.810444,
2002-07-08, 01:24:00,VALID,916.735,VALID,0,VALID,97.2269,VALID,-0.0339617,VALID,19.6465,VALID,132,VALID,0.872596,
2002-07-08, 01:25:00,VALID,916.73,VALID,0,VALID,97.1468,VALID,-0.0509425,VALID,19.6535,VALID,142,VALID,0.893663,
2002-07-08, 01:26:00,VALID,916.735,VALID,0,VALID,97.0438,VALID,-0.0509425,VALID,19.6403,VALID,139,VALID,0.904647,
2002-07-08, 01:27:00,VALID,916.741,VALID,0,VALID,97.0069,VALID,-0.0169808,VALID,19.6344,VALID,117,VALID,0.592905,
2002-07-08, 01:28:00,VALID,916.726,VALID,0,VALID,97.0616,VALID,0,VALID,19.6207,VALID,107,VALID,0.862695,
2002-07-08, 01:29:00,VALID,916.725,VALID,0,VALID,97.0616,VALID,-0.0169808,VALID,19.6234,VALID,91,VALID,1.02865,
2002-07-08, 01:30:00,VALID,916.696,VALID,0,VALID,97.1442,VALID,-0.0169808,VALID,19.653,VALID,106,VALID,1.04343,
2002-07-08, 01:31:00,VALID,916.708,VALID,0,VALID,97.1175,VALID,-0.0509425,VALID,19.6982,VALID,110,VALID,0.898237,
2002-07-08, 01:32:00,VALID,916.683,VALID,0,VALID,97.0145,VALID,-0.0169808,VALID,19.7308,VALID,107,VALID,0.91266,
2002-07-08, 01:33:00,VALID,916.664,VALID,0,VALID,96.7856,VALID,-0.0169808,VALID,19.7467,VALID,101,VALID,0.625893,
2002-07-08, 01:34:00,VALID,916.642,VALID,0,VALID,96.3609,VALID,-0.0339617,VALID,19.7276,VALID,99,VALID,0.256811,
2002-07-08, 01:35:00,VALID,916.653,VALID,0,VALID,96.01,VALID,-0.0679233,VALID,19.6629,VALID,99,VALID,0.236698,
2002-07-08, 01:36:00,VALID,916.664,VALID,0,VALID,96.029,VALID,-0.0679233,VALID,19.6346,VALID,99,VALID,0.377821,
2002-07-08, 01:37:00,VALID,916.65,VALID,0,VALID,96.3062,VALID,-0.0509425,VALID,19.6311,VALID,85,VALID,0.736979,
2002-07-08, 01:38:00,VALID,916.62,VALID,0,VALID,96.2007,VALID,-0.0679233,VALID,19.6249,VALID,65,VALID,1.04688,
2002-07-08, 01:39:00,VALID,916.565,VALID,0,VALID,96.3775,VALID,-0.0509425,VALID,19.6145,VALID,71,VALID,1.17825,
2002-07-08, 01:40:00,VALID,916.539,VALID,0,VALID,96.5758,VALID,-0.0339617,VALID,19.6436,VALID,102,VALID,1.04181,
2002-07-08, 01:41:00,VALID,916.54,VALID,0,VALID,96.6814,VALID,-0.0339617,VALID,19.6562,VALID,120,VALID,0.832899,
2002-07-08, 01:42:00,VALID,916.534,VALID,0,VALID,96.6839,VALID,-0.0509425,VALID,19.6856,VALID,120,VALID,0.865498,
2002-07-08, 01:43:00,VALID,916.525,VALID,0,VALID,96.5161,VALID,-0.0169808,VALID,19.7082,VALID,130,VALID,0.983398,
2002-07-08, 01:44:00,VALID,916.506,VALID,0,VALID,96.2859,VALID,-0.0339617,VALID,19.7047,VALID,128,VALID,0.761719,
2002-07-08, 01:45:00,VALID,916.503,VALID,0,VALID,96.2274,VALID,-0.0679233,VALID,19.6888,VALID,126,VALID,0.621795,
2002-07-08, 01:46:00,VALID,916.493,VALID,0,VALID,96.3329,VALID,-0.0339617,VALID,19.6788,VALID,110,VALID,0.913194,
2002-07-08, 01:47:00,VALID,916.49,VALID,0,VALID,96.2452,VALID,-0.0169808,VALID,19.6759,VALID,109,VALID,0.847756,
2002-07-08, 01:48:00,VALID,916.476,VALID,0,VALID,96.4512,VALID,-0.0339617,VALID,19.6788,VALID,118,VALID,1.26415,
2002-07-08, 01:49:00,VALID,916.457,VALID,0,VALID,96.4398,VALID,0,VALID,19.7049,VALID,119,VALID,1.37344,
2002-07-08, 01:50:00,VALID,916.458,VALID,0,VALID,96.3202,VALID,-0.0169808,VALID,19.7114,VALID,130,VALID,1.08355,
2002-07-08, 01:51:00,VALID,916.468,VALID,0,VALID,96.1651,VALID,-0.0339617,VALID,19.7211,VALID,139,VALID,0.789292,
2002-07-08, 01:52:00,VALID,916.471,VALID,0,VALID,96.0049,VALID,-0.0679233,VALID,19.7151,VALID,142,VALID,0.902043,
2002-07-08, 01:53:00,VALID,916.486,VALID,0,VALID,96.0405,VALID,-0.0849042,VALID,19.6823,VALID,148,VALID,0.797476,
2002-07-08, 01:54:00,VALID,916.505,VALID,0,VALID,96.1638,VALID,-0.0339617,VALID,19.6731,VALID,137,VALID,0.746652,
2002-07-08, 01:55:00,VALID,916.502,VALID,0,VALID,96.2452,VALID,-0.0679233,VALID,19.66,VALID,135,VALID,0.711939,
2002-07-08, 01:56:00,VALID,916.515,VALID,0,VALID,96.2948,VALID,-0.0509425,VALID,19.6731,VALID,121,VALID,0.702492,
2002-07-08, 01:57:00,VALID,916.508,VALID,0,VALID,96.3609,VALID,-0.0509425,VALID,19.6632,VALID,115,VALID,0.648872,
2002-07-08, 01:58:00,VALID,916.507,VALID,0,VALID,96.3813,VALID,-0.0169808,VALID,19.6595,VALID,120,VALID,0.614984,
2002-07-08, 01:59:00,VALID,916.532,VALID,0,VALID,96.2846,VALID,-0.0679233,VALID,19.6373,VALID,106,VALID,0.552426,
2002-07-08, 02:00:00,VALID,916.559,VALID,0,VALID,96.2223,VALID,-0.0849042,VALID,19.6113,VALID,94,VALID,0.51028,
2002-07-08, 02:01:00,VALID,916.565,VALID,0,VALID,96.1702,VALID,-0.0169808,VALID,19.5854,VALID,88,VALID,0.653716,
2002-07-08, 02:02:00,VALID,916.568,VALID,0,VALID,96.2299,VALID,-0.0679233,VALID,19.5563,VALID,78,VALID,0.781467,
2002-07-08, 02:03:00,VALID,916.565,VALID,0,VALID,96.3775,VALID,-0.0169808,VALID,19.5561,VALID,84,VALID,0.771326,
2002-07-08, 02:04:00,VALID,916.548,VALID,0,VALID,96.221,VALID,-0.0339617,VALID,19.5307,VALID,82,VALID,0.752734,
2002-07-08, 02:05:00,VALID,916.503,VALID,0,VALID,96.1804,VALID,-0.0169808,VALID,19.485,VALID,85,VALID,0.907689,
2002-07-08, 02:06:00,VALID,916.483,VALID,0,VALID,96.4029,VALID,-0.0509425,VALID,19.4718,VALID,81,VALID,0.914463,
2002-07-08, 02:07:00,VALID,916.467,VALID,0,VALID,96.4715,VALID,-0.0679233,VALID,19.479,VALID,89,VALID,0.896701,
2002-07-08, 02:08:00,VALID,916.444,VALID,0,VALID,96.4499,VALID,-0.0849042,VALID,19.4721,VALID,87,VALID,0.671474,
2002-07-08, 02:09:00,VALID,916.439,VALID,0,VALID,96.469,VALID,-0.0339617,VALID,19.4497,VALID,87,VALID,0.597551,
2002-07-08, 02:10:00,VALID,916.409,VALID,0,VALID,96.5784,VALID,-0.0339617,VALID,19.4435,VALID,85,VALID,0.745117,
2002-07-08, 02:11:00,VALID,916.398,VALID,0,VALID,96.5707,VALID,0,VALID,19.4433,VALID,86,VALID,0.799262,
2002-07-08, 02:12:00,VALID,916.395,VALID,0,VALID,96.4665,VALID,-0.0169808,VALID,19.437,VALID,84,VALID,0.759651,
2002-07-08, 02:13:00,VALID,916.376,VALID,0,VALID,96.4423,VALID,-0.0169808,VALID,19.4239,VALID,84,VALID,0.8127,
2002-07-08, 02:14:00,VALID,916.362,VALID,0,VALID,96.5161,VALID,-0.0169808,VALID,19.4336,VALID,87,VALID,0.725761,
2002-07-08, 02:15:00,VALID,916.354,VALID,0,VALID,95.4505,VALID,0,VALID,19.3496,VALID,86,VALID,0.296875,
2002-07-08, 02:16:00,VALID,916.374,VALID,0,VALID,94.6163,VALID,-0.0169808,VALID,19.159,VALID,69,VALID,0.320913,
2002-07-08, 02:17:00,VALID,916.362,VALID,0,VALID,94.8223,VALID,-0.0169808,VALID,19.0527,VALID,66,VALID,0.293708,
2002-07-08, 02:18:00,VALID,916.361,VALID,0,VALID,95.2088,VALID,0,VALID,18.9973,VALID,37,VALID,0.29579,
2002-07-08, 02:19:00,VALID,916.334,VALID,0,VALID,95.8485,VALID,0.0339617,VALID,19.0028,VALID,37,VALID,0.0969551,
2002-07-08, 02:20:00,VALID,916.31,VALID,0,VALID,96.263,VALID,0.101885,VALID,19.0284,VALID,37,VALID,0,
2002-07-08, 02:21:00,VALID,916.298,VALID,0,VALID,96.5758,VALID,0.0679233,VALID,19.0704,VALID,37,VALID,0,
2002-07-08, 02:22:00,VALID,916.284,VALID,0,VALID,96.6826,VALID,0.0169808,VALID,19.0771,VALID,37,VALID,0,
2002-07-08, 02:23:00,VALID,916.272,VALID,0,VALID,96.8874,VALID,0.0849042,VALID,19.0997,VALID,37,VALID,0,
2002-07-08, 02:24:00,VALID,916.249,VALID,0,VALID,97.012,VALID,0.0169808,VALID,19.1158,VALID,37,VALID,0,
2002-07-08, 02:25:00,VALID,916.228,VALID,0,VALID,96.8619,VALID,0.0169808,VALID,19.1059,VALID,37,VALID,0,
2002-07-08, 02:26:00,VALID,916.213,VALID,0,VALID,96.4563,VALID,0.0339617,VALID,19.0745,VALID,37,VALID,0,
2002-07-08, 02:27:00,VALID,916.197,VALID,0,VALID,95.9591,VALID,0.0339617,VALID,18.9873,VALID,37,VALID,0.113782,
2002-07-08, 02:28:00,VALID,916.195,VALID,0,VALID,95.0613,VALID,0.0169808,VALID,18.7864,VALID,37,VALID,0.554253,
2002-07-08, 02:29:00,VALID,916.186,VALID,0,VALID,95.4403,VALID,0.0339617,VALID,18.6611,VALID,37,VALID,0.75,
2002-07-08, 02:30:00,VALID,916.179,VALID,0,VALID,96.2719,VALID,0.0169808,VALID,18.6547,VALID,40,VALID,0.885557,
2002-07-08, 02:31:00,VALID,916.167,VALID,0,VALID,97.1633,VALID,0.0339617,VALID,18.7324,VALID,54,VALID,0.870703,
2002-07-08, 02:32:00,VALID,916.166,VALID,0,VALID,97.9148,VALID,0.0339617,VALID,18.8611,VALID,75,VALID,0.899089,
2002-07-08, 02:33:00,VALID,916.167,VALID,0,VALID,98.0433,VALID,-0.0169808,VALID,18.9453,VALID,81,VALID,0.882583,
2002-07-08, 02:34:00,VALID,916.171,VALID,0,VALID,97.9835,VALID,-0.0679233,VALID,18.992,VALID,86,VALID,0.980369,
2002-07-08, 02:35:00,VALID,916.174,VALID,0,VALID,97.9797,VALID,-0.0849042,VALID,19.0372,VALID,92,VALID,0.945513,
2002-07-08, 02:36:00,VALID,916.14,VALID,0,VALID,97.9809,VALID,-0.0679233,VALID,19.0824,VALID,93,VALID,1.09643,
2002-07-08, 02:37:00,VALID,916.099,VALID,0,VALID,97.8334,VALID,-0.0679233,VALID,19.1108,VALID,92,VALID,1.1897,
2002-07-08, 02:38:00,VALID,916.066,VALID,0,VALID,97.6274,VALID,-0.101885,VALID,19.1567,VALID,94,VALID,1.32686,
2002-07-08, 02:39:00,VALID,916.056,VALID,0,VALID,97.3375,VALID,-0.0849042,VALID,19.189,VALID,97,VALID,1.26411,
2002-07-08, 02:40:00,VALID,916.036,VALID,0,VALID,96.9026,VALID,-0.0679233,VALID,19.1985,VALID,93,VALID,1.24159,
2002-07-08, 02:41:00,VALID,916.047,VALID,0,VALID,96.4131,VALID,-0.0509425,VALID,19.2047,VALID,82,VALID,1.08779,
2002-07-08, 02:42:00,VALID,916.051,VALID,0,VALID,96.1816,VALID,-0.0339617,VALID,19.1697,VALID,89,VALID,1.31353,
2002-07-08, 02:43:00,VALID,916.043,VALID,0,VALID,96.3291,VALID,-0.101885,VALID,19.1734,VALID,95,VALID,1.38492,
2002-07-08, 02:44:00,VALID,916.031,VALID,0,VALID,96.1549,VALID,-0.0509425,VALID,19.1664,VALID,93,VALID,1.32813,
2002-07-08, 02:45:00,VALID,916.009,VALID,0,VALID,96.1498,VALID,-0.0169808,VALID,19.1272,VALID,90,VALID,1.3807,
2002-07-08, 02:46:00,VALID,916.015,VALID,0,VALID,95.9985,VALID,-0.0679233,VALID,19.0951,VALID,88,VALID,1.09648,
2002-07-08, 02:47:00,VALID,916.02,VALID,0,VALID,96.1715,VALID,-0.0849042,VALID,19.0566,VALID,95,VALID,1.16674,
2002-07-08, 02:48:00,VALID,916.022,VALID,0,VALID,96.3902,VALID,-0.0169808,VALID,19.0494,VALID,101,VALID,0.92528,
2002-07-08, 02:49:00,VALID,916.042,VALID,0,VALID,96.4665,VALID,0.0339617,VALID,19.0519,VALID,99,VALID,0.807509,
2002-07-08, 02:50:00,VALID,916.033,VALID,0,VALID,96.6254,VALID,0.0339617,VALID,19.0519,VALID,113,VALID,0.796875,
2002-07-08, 02:51:00,VALID,916.041,VALID,0,VALID,96.4131,VALID,0.0169808,VALID,19.0457,VALID,119,VALID,0.841216,
2002-07-08, 02:52:00,VALID,916.037,VALID,0,VALID,96.3965,VALID,0.0339617,VALID,19.0226,VALID,114,VALID,1.03203,
2002-07-08, 02:53:00,VALID,916.021,VALID,0,VALID,96.5771,VALID,0.0169808,VALID,19.0418,VALID,111,VALID,1.17773,
2002-07-08, 02:54:00,VALID,915.997,VALID,0,VALID,96.3266,VALID,0.0339617,VALID,19.0713,VALID,111,VALID,1.12408,
2002-07-08, 02:55:00,VALID,915.977,VALID,0,VALID,96.0634,VALID,0.0509425,VALID,19.0485,VALID,109,VALID,1.02083,
2002-07-08, 02:56:00,VALID,915.98,VALID,0,VALID,96.0011,VALID,0.0339617,VALID,19.0164,VALID,116,VALID,0.977564,
2002-07-08, 02:57:00,VALID,915.997,VALID,0,VALID,96.0519,VALID,0,VALID,18.9901,VALID,108,VALID,0.670982,
2002-07-08, 02:58:00,VALID,916.004,VALID,0,VALID,95.9298,VALID,0.0509425,VALID,18.9449,VALID,98,VALID,0.436298,
2002-07-08, 02:59:00,VALID,915.998,VALID,0,VALID,96.1702,VALID,0.101885,VALID,18.9218,VALID,82,VALID,0.82728,
2002-07-08, 03:00:00,VALID,915.991,VALID,0,VALID,96.2961,VALID,0.0849042,VALID,18.9324,VALID,84,VALID,0.894314,
2002-07-08, 03:01:00,VALID,915.988,VALID,0,VALID,96.5389,VALID,0.0679233,VALID,18.9389,VALID,94,VALID,1.03686,
2002-07-08, 03:02:00,VALID,916.004,VALID,0,VALID,96.6,VALID,0.0509425,VALID,18.9647,VALID,95,VALID,0.958059,
2002-07-08, 03:03:00,VALID,916.044,VALID,0,VALID,96.2872,VALID,0,VALID,18.9555,VALID,87,VALID,0.594984,
2002-07-08, 03:04:00,VALID,916.072,VALID,0,VALID,95.3335,VALID,-0.101885,VALID,18.831,VALID,78,VALID,0.366765,
2002-07-08, 03:05:00,VALID,916.081,VALID,0,VALID,95.4619,VALID,-0.101885,VALID,18.7334,VALID,79,VALID,0.622396,
2002-07-08, 03:06:00,VALID,916.07,VALID,0,VALID,96.2045,VALID,-0.0509425,VALID,18.7336,VALID,101,VALID,0.772593,
2002-07-08, 03:07:00,VALID,916.071,VALID,0,VALID,96.3711,VALID,-0.101885,VALID,18.7664,VALID,118,VALID,0.800586,
2002-07-08, 03:08:00,VALID,916.093,VALID,0,VALID,96.3558,VALID,-0.0849042,VALID,18.7338,VALID,122,VALID,0.938117,
2002-07-08, 03:09:00,VALID,916.118,VALID,0,VALID,96.7526,VALID,-0.101885,VALID,18.7278,VALID,123,VALID,0.969952,
2002-07-08, 03:10:00,VALID,916.141,VALID,0,VALID,96.9688,VALID,-0.101885,VALID,18.7731,VALID,118,VALID,0.788845,
2002-07-08, 03:11:00,VALID,916.153,VALID,0,VALID,97.0692,VALID,-0.0679233,VALID,18.8019,VALID,104,VALID,0.865986,
2002-07-08, 03:12:00,VALID,916.145,VALID,0,VALID,96.5453,VALID,-0.118866,VALID,18.7922,VALID,100,VALID,0.589738,
2002-07-08, 03:13:00,VALID,916.153,VALID,0,VALID,96.5911,VALID,-0.101885,VALID,18.7539,VALID,102,VALID,0.76543,
2002-07-08, 03:14:00,VALID,916.149,VALID,0,VALID,96.792,VALID,-0.101885,VALID,18.7341,VALID,104,VALID,0.975911,
2002-07-08, 03:15:00,VALID,916.136,VALID,0,VALID,97.3286,VALID,-0.0679233,VALID,18.789,VALID,110,VALID,0.897518,
2002-07-08, 03:16:00,VALID,916.114,VALID,0,VALID,96.9433,VALID,-0.0849042,VALID,18.7989,VALID,128,VALID,0.732372,
2002-07-08, 03:17:00,VALID,916.124,VALID,0,VALID,96.8581,VALID,-0.101885,VALID,18.7689,VALID,145,VALID,0.566106,
2002-07-08, 03:18:00,VALID,916.132,VALID,0,VALID,96.8492,VALID,-0.0679233,VALID,18.7731,VALID,145,VALID,0.524554,
2002-07-08, 03:19:00,VALID,916.127,VALID,0,VALID,96.6216,VALID,0.0169808,VALID,18.7356,VALID,139,VALID,0.319912,
2002-07-08, 03:20:00,VALID,916.111,VALID,0,VALID,96.2363,VALID,0.0169808,VALID,18.6713,VALID,148,VALID,0.800253,
2002-07-08, 03:21:00,VALID,916.105,VALID,0,VALID,96.6585,VALID,0.0339617,VALID,18.6489,VALID,134,VALID,0.949653,
2002-07-08, 03:22:00,VALID,916.091,VALID,0,VALID,97.3833,VALID,0,VALID,18.713,VALID,114,VALID,1.0597,
2002-07-08, 03:23:00,VALID,916.08,VALID,0,VALID,97.2727,VALID,0.0169808,VALID,18.7943,VALID,116,VALID,0.901316,
2002-07-08, 03:24:00,VALID,916.067,VALID,0,VALID,97.2752,VALID,0,VALID,18.7972,VALID,117,VALID,0.992804,
2002-07-08, 03:25:00,VALID,916.039,VALID,0,VALID,97.1353,VALID,-0.0169808,VALID,18.8233,VALID,98,VALID,0.848184,
2002-07-08, 03:26:00,VALID,916.022,VALID,0,VALID,96.4283,VALID,0,VALID,18.7527,VALID,82,VALID,0.727214,
2002-07-08, 03:27:00,VALID,916.002,VALID,0,VALID,96.7933,VALID,0,VALID,18.6874,VALID,81,VALID,0.907939,
2002-07-08, 03:28:00,VALID,916,VALID,0,VALID,96.8505,VALID,0.0169808,VALID,18.7038,VALID,79,VALID,1.04941,
2002-07-08, 03:29:00,VALID,915.979,VALID,0,VALID,96.6559,VALID,0,VALID,18.6452,VALID,81,VALID,1.14453,
2002-07-08, 03:30:00,VALID,915.954,VALID,0,VALID,97.2447,VALID,0,VALID,18.6713,VALID,86,VALID,1.27905,
2002-07-08, 03:31:00,VALID,915.94,VALID,0,VALID,97.2663,VALID,0.0169808,VALID,18.6904,VALID,83,VALID,1.1072,